COSMOS 1275 DEB, 12693

Orbit data source: Space-Track

COSMOS 1275 DEB, 12693 is space debris in LEO originally from a launch on Thu, 04 Jun 1981 UTC launched from the Plesetsk Missile And Space Complex (PKMTR). Debris objects in space refer to the collection of defunct objects orbiting the Earth. Examples of debris include non-operational satellites, rocket bodies, and fragments generated from explosions, collisions, or faulty payload assembly.

Loading next visibility...
Identifier
12693, 1981-053AM
Orbit
LEO
Last TLE update
12 hours ago
Origin
Manufacturer
Unknown
Mission
Spacecraft
Bus & Motor
Unknown
Mass
Unknown
Launch date (UTC)
1981-06-04 (44 years ago)
Launch vehicle
Unknown
Launch site
Plesetsk Missile And Space Complex (PKMTR)
Object type
Payload
Rocket body
Debris
Shape & HBR
Unknown
Radar Cross Section
Medium (>0.1 m² and <1 m²)

Expand to show TLE details & history

TLE from 12 hours ago
0 COSMOS 1275 DEB
1 12693U 81053AM  25128.76270763  .00002484  00000-0  11470-2 0  9997
2 12693  83.1442 250.6649 0046640 190.7525 293.5785 14.20047385930641
Epoch: 2025-05-08T18:18Z
Definitive object data (Epoch: 2025-05-08T18:18:17.939Z)
Latitude
55.65293°
Longitude
-80.81755°
Altitude
821.155 km
Speed
7.455 km/s
True Right ascension
04h 02m 20s
True Declination
55° 29' 38"
Sunlit
Object was in daylight at TLE epoch
Visualization TLE readout
Latitude
-73.09334°
Longitude
-47.97016°
Altitude
837.85 km
Speed
7.44 km/s
Apparent Right ascension
03h 51m 43s
Apparent Declination
-59° 28' 47"
Sunlit
Object is in daylight
Visualization observer readout
Local Sidereal Time
14:53:57
Azimuth
200.154° SSW
Elevation
-68.428°
Doppler factor
1
Orbital elements
Apogee altitude
855.854 km
Perigee altitude
788.689 km
Semi-major axis
7,200.408 km
Eccentricity
0.004664
Inclination
83.1442°
RAAN
250.6649°
Arg. of periapsis
190.7525°
True anomaly
293.08753°
Mean anomaly
293.5785°
Eccentric anomaly
293.33313°
Mean motion
3.55228 °/min
BSTAR
0.001147
Orbital period
101.34 mins
Loading maneuver chart data...
Loading SW <> Apogee altitude chart data...
Loading historical data...
Loading historical data...
Loading historical data...
Loading historical data...
Loading historical data...
Loading historical data...
Loading historical data...

COSMOS 1275 DEB Visibility forecast

Observer location: undefined°, undefined°

Span
Click to sort rows by Start time (UTC) header in descending order
Start Az.
Max El. time (UTC)
Max El. Az.
Max El.
End time (UTC)
End Az.
5 mins2025-05-09 07:24:04.118Z108.707° ESE2025-05-09 07:26:04.118Z86.829° E13.853°2025-05-09 07:29:04.118Z53.251° ENE
9 mins2025-05-09 09:04:04.118Z197.859° SSW2025-05-09 09:08:04.118Z286.811° WNW43.037°2025-05-09 09:13:04.118Z1.091° NNE
8 mins2025-05-09 19:41:04.118Z7.395° NNE2025-05-09 19:45:04.118Z104.742° ESE39.53°2025-05-09 19:49:04.118Z157.936° S
4 mins2025-05-09 21:25:04.118Z291.111° WNW2025-05-09 21:26:04.118Z278.168° WNW15.093°2025-05-09 21:29:04.118Z243.025° WSW
|